TimeCST,TemperatureF,Dew PointF,Humidity,Sea Level PressureIn,VisibilityMPH,Wind Direction,Wind SpeedMPH,Gust SpeedMPH,PrecipitationIn,Events,Conditions,WindDirDegrees,DateUTC
12:53 AM,44.1,41.0,89,30.25,5.0,Calm,Calm,-,0.01,,Overcast,0,2013-01-09 06:53:00
1:53 AM,45.0,41.0,86,30.26,7.0,Calm,Calm,-,0.00,,Overcast,0,2013-01-09 07:53:00
2:53 AM,44.1,42.1,93,30.25,6.0,Calm,Calm,-,N/A,,Overcast,0,2013-01-09 08:53:00
3:53 AM,45.0,42.1,90,30.26,4.0,NNW,4.6,-,N/A,,Overcast,340,2013-01-09 09:53:00
4:41 AM,44.6,41.0,87,30.25,7.0,North,3.5,-,N/A,,Overcast,10,2013-01-09 10:41:00
4:53 AM,44.1,41.0,89,30.26,7.0,Calm,Calm,-,N/A,,Overcast,0,2013-01-09 10:53:00
5:25 AM,44.6,41.0,87,30.27,6.0,NNE,3.5,-,N/A,,Mostly Cloudy,20,2013-01-09 11:25:00
5:34 AM,42.8,39.2,87,30.28,5.0,NNE,3.5,-,N/A,,Mostly Cloudy,30,2013-01-09 11:34:00
5:53 AM,43.0,41.0,93,30.29,6.0,NNE,3.5,-,N/A,,Overcast,20,2013-01-09 11:53:00
6:10 AM,42.8,39.2,87,30.29,6.0,Calm,Calm,-,N/A,,Scattered Clouds,0,2013-01-09 12:10:00
6:35 AM,39.2,37.4,93,30.30,1.5,Calm,Calm,-,N/A,,Clear,0,2013-01-09 12:35:00
6:50 AM,41.0,39.2,93,30.31,3.0,ESE,3.5,-,N/A,,Clear,120,2013-01-09 12:50:00
6:53 AM,42.1,39.9,92,30.32,4.0,ESE,3.5,-,N/A,,Clear,110,2013-01-09 12:53:00
7:27 AM,41.0,37.4,87,30.34,2.0,Calm,Calm,-,N/A,,Clear,0,2013-01-09 13:27:00
7:53 AM,42.1,39.9,92,30.37,2.0,NE,3.5,-,N/A,,Clear,50,2013-01-09 13:53:00
8:01 AM,41.0,39.2,93,30.36,1.8,ENE,3.5,-,N/A,,Partly Cloudy,70,2013-01-09 14:01:00
8:33 AM,42.8,41.0,93,30.38,2.5,NE,3.5,-,N/A,,Clear,40,2013-01-09 14:33:00
8:42 AM,44.6,42.8,93,30.38,3.0,NNE,3.5,-,N/A,,Clear,30,2013-01-09 14:42:00
8:53 AM,45.0,43.0,93,30.40,3.0,North,4.6,-,N/A,,Clear,10,2013-01-09 14:53:00
9:38 AM,46.4,42.8,87,30.38,6.0,NE,9.2,-,N/A,,Partly Cloudy,50,2013-01-09 15:38:00
9:53 AM,46.9,44.1,90,30.38,6.0,NNE,8.1,-,N/A,,Scattered Clouds,20,2013-01-09 15:53:00
10:53 AM,50.0,42.1,74,30.39,10.0,NNE,10.4,-,N/A,,Clear,20,2013-01-09 16:53:00
11:53 AM,52.0,41.0,66,30.37,10.0,NE,8.1,-,N/A,,Clear,40,2013-01-09 17:53:00
12:53 PM,54.0,39.9,59,30.36,10.0,ENE,9.2,-,N/A,,Clear,60,2013-01-09 18:53:00
1:53 PM,55.0,36.0,49,30.34,10.0,NE,11.5,-,N/A,,Clear,50,2013-01-09 19:53:00
2:53 PM,55.0,37.0,51,30.35,10.0,NE,9.2,-,N/A,,Clear,50,2013-01-09 20:53:00
3:53 PM,53.1,39.0,59,30.35,10.0,NE,8.1,-,N/A,,Clear,50,2013-01-09 21:53:00
4:53 PM,51.1,39.0,63,30.36,10.0,NE,6.9,-,N/A,,Clear,40,2013-01-09 22:53:00
5:53 PM,50.0,37.9,63,30.36,10.0,NE,8.1,-,N/A,,Clear,50,2013-01-09 23:53:00
6:53 PM,51.1,37.0,59,30.37,10.0,ENE,8.1,-,N/A,,Clear,60,2013-01-10 00:53:00
7:53 PM,50.0,36.0,59,30.38,10.0,ENE,8.1,-,N/A,,Clear,60,2013-01-10 01:53:00
8:53 PM,51.1,34.0,52,30.38,10.0,ENE,12.7,-,N/A,,Clear,60,2013-01-10 02:53:00
9:53 PM,50.0,32.0,50,30.37,10.0,ENE,12.7,-,N/A,,Clear,70,2013-01-10 03:53:00
10:53 PM,50.0,32.0,50,30.36,10.0,ENE,12.7,-,N/A,,Overcast,70,2013-01-10 04:53:00
11:53 PM,48.0,32.0,54,30.35,10.0,ENE,12.7,23.0,N/A,,Overcast,70,2013-01-10 05:53:00